Regional Weather Roundup
Issued by NWS

Home | Current Version | Previous Version | Graphics & Text | Print | Product List | Glossary On
Versions: 1 2 3 4 5 6 7 8 9 10 11 12 13 14 15 16 17 18 19 20 21 22 23 24 25 26 27 28 29 30 31 32 33 34 35 36 37 38 39 40 41 42 43 44 45 46 47 48 49 50
000
ASUS43 KDTX 242001
RWRMI
MICHIGAN HOURLY REGIONAL WEATHER ROUNDUP
NATIONAL WEATHER SERVICE DETROIT/PONTIAC MI
400 PM EDT TUE APR 24 2018

NOTE: "FAIR" INDICATES FEW OR NO CLOUDS BELOW 12,000 FEET WITH NO
SIGNIFICANT WEATHER AND/OR OBSTRUCTION TO VISIBILITY.

MIZ047>049-052>055-059>063-066>070-074>076-081>083-242100-
SOUTHEAST LOWER MICHIGAN

CITY           SKY/WX    TMP DP  RH WIND       PRES   REMARKS
ADRIAN         LGT RAIN  52  51  97 SE10      30.02S FOG
ALMA           LGT RAIN  60  51  73 NW6       30.03F
ANN ARBOR      LGT RAIN  53  52  96 E9        30.02S FOG
BAD AXE        FAIR      65  39  38 SE12G18   30.04F
CARO           CLOUDY    64  44  49 E7        30.00F
DETROIT CITY   CLOUDY    54  49  83 SE10      30.04F
DETROIT        RAIN      54  50  86 E9        30.03F FOG
FLINT          CLOUDY    64  45  49 SE9       30.00F
GROSSE ILE     RAIN      51  50  95 E8        30.02F
HILLSDALE      LGT RAIN  52  50  93 E8        29.99F
HOWELL         CLOUDY    59  50  72 SE12      30.01F

CITY           SKY/WX    TMP DP  RH WIND       PRES   REMARKS
JACKSON        CLOUDY    56  50  80 NE8       30.00F
LAMBERTVILLE   LGT RAIN  52  49  89 E6        30.00F
LANSING        CLOUDY    62  48  60 NE7       30.01F
LAPEER         CLOUDY    63  45  52 S12G17    30.02F
MASON          CLOUDY    60  47  61 SE5       30.01S
PONTIAC        LGT RAIN  57  51  80 SE10      30.01F
PORT HOPE        N/A     48  43  82 CALM      30.04F
PORT HURON     FAIR      61  43  51 SE9       30.04F
TRI CITIES     CLOUDY    61  48  62 N12       30.03F
MIDLAND        CLOUDY    60  48  65 NE7       30.03S
TROY           DRIZZLE   57  49  74 E6        30.05F
SAGINAW HB     CLOUDY    61  46  59 N10       30.01F
$$
MIZ043>046-050>051-056>058-064>065-071>073-077>080-242100-
SOUTHWEST LOWER MICHIGAN

CITY           SKY/WX    TMP DP  RH WIND       PRES   REMARKS
BATTLE CREEK   CLOUDY    58  50  75 E7        30.00F
BENTON HARBOR  CLOUDY    57  47  69 N7        29.99F
BIG RAPIDS     CLOUDY    55  47  72 N7        30.04S
COLDWATER      CLOUDY    55  51  86 NE8       29.99F
HOLLAND        CLOUDY    63  48  58 E5        30.01F
GRAND RAPIDS   CLOUDY    61  49  64 N6        30.01F
IONIA          LGT RAIN  59  48  65 CALM      30.01F
KALAMAZOO      CLOUDY    61  48  62 E8        30.00F
LUDINGTON      FAIR      60  49  65 NW5       30.02F
MARSHALL       CLOUDY    56  49  77 E6        30.00F
MOUNT PLEASANT PTSUNNY   59  50  72 N6        30.03F
MUSKEGON       CLOUDY    59  48  67 NW7       30.02S
SOUTH HAVEN    CLOUDY    61  48  62 N10       29.99F
$$
MIZ016>042-242100-
NORTHERN LOWER MICHIGAN

CITY           SKY/WX    TMP DP  RH WIND       PRES   REMARKS
ALPENA         LGT RAIN  58  50  75 SW3       30.05F
BEAVER ISLAND  FAIR      57  32  38 W5        30.06F
BELLAIRE       PTSUNNY   64  46  53 NW3       30.03S
CADILLAC       FAIR      55  49  80 SE3       30.04F
CHARLEVOIX     CLOUDY    53  35  51 NW9       30.08S
FRANKFORT      FAIR      62  49  63 W10       30.04F
GAYLORD        CLOUDY    55  45  68 S6        30.04F
HARBOR SPRINGS FAIR      48  37  64 SW3       30.04F
HOUGHTON LAKE  LGT RAIN  54  49  83 CALM      30.05F
MANISTEE       FAIR      60  48  64 NW12      30.03F
OSCODA         CLOUDY    58  44  60 SE5       30.05F
PELLSTON       FAIR      65  46  50 SW8       30.03F
ROGERS CITY    LGT RAIN  49  37  61 CALM      30.05F
TRAVERSE CITY  PTSUNNY   63  47  55 NE7       30.01F
$$
MIZ007>008-015-242100-
EASTERN UPPER MICHIGAN

CITY           SKY/WX    TMP DP  RH WIND       PRES   REMARKS
KINROSS        FAIR      54  29  38 N12       30.04S
MACKINAC ISLAN FAIR      57  34  41 W8        30.04S
NEWBERRY       PTSUNNY   49  27  43 N10       30.07S
S. S. MARIE    FAIR      56  31  38 W9        30.04S
MUNISING         N/A     39  33  79 NW15      30.13S WCI  31
$$
MIZ004>006-011>014-085-242100-
CENTRAL UPPER MICHIGAN

CITY           SKY/WX    TMP DP  RH WIND       PRES   REMARKS
MANISTIQUE     CLOUDY    54  29  38 N10G16    30.07S
ESCANABA       CLOUDY    55  30  38 N10G17    30.09S
MENOMINEE      PTSUNNY   54  31  41 E16G23    30.08R
SAWYER-GWINN   SUNNY     46  28  49 NE13      30.12S
$$
MIZ001>003-009>011-084-242100-
WESTERN UPPER MICHIGAN

CITY           SKY/WX    TMP DP  RH WIND       PRES   REMARKS
IRON MOUNTAIN  FAIR      65  33  30 NE13      30.04F
HOUGHTON       FAIR      46  26  45 N9        30.16R
COPPER HARBOR    N/A     41  28  60 N12       30.15F
IRONWOOD       PTSUNNY   45  27  49 N9        30.20R
$$

ABBREVIATIONS USED IN REMARKS
   TC - TEMPERATURE IN CELSIUS
  WCI - WIND CHILL INDEX
   HX - HEAT INDEX
  VSB - VISIBILITY





USA.gov is the U.S. government's official web portal to all federal, state and local government web resources and services.